User: anonymous
Location: Fairmont
(43.6520°N, 94.4610°W)
Time: 18:57:31
(UTC-05:00)
Language:

Cosmos-2242 - Orbit

View from above orbital plane
View from above orbital plane
View from above satellite
View from above satellite

Ground track
Ground track

The orbit data is extracted from the following two-line orbital elements,

1 22626U 93024A   14108.15093543  .00002791  00000-0  31784-3 0   648
2 22626 082.5247 050.4842 0019570 359.2111 000.9070 14.85734730134359
Epoch (UTC): 18 April 2014 03:37:20
Eccentricity: 0.0019570
inclination: 82.5247°
perigee height: 597 km
apogee height: 625 km
right ascension of ascending node: 50.4842°
argument of perigee: 359.2111°
revolutions per day: 14.85734730
mean anomaly at epoch: 0.9070°
orbit number at epoch: 13435

The dashed part of the orbit path shows where the satellite is in the earth's shadow,  

DLR